Location: Pescara
(42.4670°N, 14.2170°E)
Time: 02:26:57
(UTC+02:00)

ISS - Pass Details

Date: 14 May 2021
Orbit: 417 x 422 km, 51.6° (Epoch: 14 June)

Event Time Altitude Azimuth Distance (km) Brightness Sun altitude
Exits shadow 01:18:08 17° 348° (NNW) 1,137 -0.9 -28.8°
Maximum altitude 01:18:24 18° 355° (N) 1,131 -0.8 -28.8°
Drops below altitude 10° 01:20:47 10° 39° (NE) 1,508 -0.3 -28.7°
Sets 01:23:23 0° 60° (ENE) 2,374 0.5 -28.7°
